Location: Newark
(34.0111°N, 88.4892°W)
Time: 12:45:59
(UTC+00:00)

ISS - Visible Passes

Search period start: 25 February 2020 00:00
Search period end: 06 March 2020 00:00
Orbit: 415 x 422 km, 51.6° (Epoch: 26 February)

Date Brightness Start Highest point End Pass type
(mag) Time Alt. Az. Time Alt. Az. Time Alt. Az.
25 Feb -2.1 11:09:17 22° NNW 11:09:17 22° NNW 11:11:39 10° NNE visible
26 Feb -0.9 10:23:47 14° NNE 10:23:47 14° NNE 10:24:21 10° NNE visible
27 Feb -1.2 11:11:07 10° NNW 11:11:07 10° NNW 11:11:16 10° NNW visible
